EW1549 Weather Reports


time (UTC)temp
F
wind
direction
speed
knots
gust
knots
rain 1hr
in
rain 24hr
in
rain mn
in
humidity
%
barometer
mb
20260831030016 0 212 0.0 4.3 0.00 0.00 0.00 1018.1
20260831024512 0 213 2.6 5.2 0.00 0.00 0.00 1018.1
20260831023008 0 223 0.0 0.0 0.00 0.00 0.00 1018.2
20260831021503 0 223 0.0 3.5 0.00 0.00 0.00 1018.0
20260831020059 0 223 0.0 0.0 0.00 0.00 0.00 1018.2
20260831014556 0 223 0.0 2.6 0.00 0.00 0.00 1018.4
20260831013050 0 223 0.0 3.5 0.00 0.00 0.00 1018.6
20260831011552 0 223 0.0 0.0 0.00 0.00 0.00 1018.6
20260831010041 0 223 0.0 0.0 0.00 0.00 0.00 1018.8
20260831004539 0 223 0.0 0.0 0.00 0.00 0.00 1018.8
20260831003033 0 223 0.0 3.5 0.00 0.00 0.00 1019.0
20260831001527 0 223 0.0 2.6 0.00 0.00 0.00 1019.1
20260831000023 0 223 0.0 0.0 0.00 0.00 0.00 1018.8
20260830234517 0 223 0.0 0.0 0.00 0.00 0.00 1018.7
20260830233019 0 223 0.0 0.0 0.00 0.00 0.00 1018.8
20260830231516 0 223 0.0 4.3 0.00 0.00 0.00 1018.7
20260830230008 0 142 3.5 6.1 0.00 0.00 0.00 1019.0
20260830224509 0 192 0.0 3.5 0.00 0.00 0.00 1019.2
20260830223007 0 268 0.9 2.6 0.00 0.00 0.00 1019.0
20260830221509 0 270 0.0 2.6 0.00 0.00 0.00 1018.9
20260830220006 0 270 2.6 3.5 0.00 0.00 0.00 1018.9
20260830214506 0 329 0.0 4.3 0.00 0.00 0.00 1018.8
20260830213006 0 46 0.0 0.0 0.00 0.00 0.00 1018.7
20260830211505 0 46 2.6 7.8 0.00 0.00 0.00 1018.5
20260830210003 0 30 0.0 7.8 0.00 0.00 0.00 1018.3
20260830204559 0 12 2.6 7.0 0.00 0.00 0.00 1018.1
20260830203054 73 341 0.0 2.6 0.00 0.00 0.00 72 1018.0
20260830201554 0 12 4.3 8.7 0.00 0.00 0.00 1017.9
20260830200052 0 41 4.3 11.3 0.00 0.00 0.00 1017.8
20260830194600 0 54 6.1 13.9 0.00 0.00 0.00 1017.6
20260830193040 0 80 5.2 13.0 0.00 0.00 0.00 1017.6
20260830191541 0 103 6.1 12.2 0.00 0.00 0.00 1017.6
20260830190038 0 60 2.6 11.3 0.00 0.00 0.00 1017.5
20260830184533 0 57 4.3 11.3 0.00 0.00 0.00 1017.4
20260830183034 0 55 6.1 11.3 0.00 0.00 0.00 1017.3
20260830181524 0 100 3.5 15.6 0.00 0.00 0.00 1017.3
20260830180030 0 65 2.6 13.9 0.00 0.00 0.00 1017.3
20260830174518 0 87 8.7 14.8 0.00 0.00 0.00 1017.2
20260830173008 0 80 7.0 16.5 0.00 0.00 0.00 1017.2
20260830171513 0 65 10.4 17.4 0.00 0.00 0.00 1017.1
20260830170100 0 77 6.1 14.8 0.00 0.00 0.00 1017.0
20260830164557 0 85 7.8 13.0 0.00 0.00 0.00 1017.0
20260830163059 0 84 5.2 13.9 0.00 0.00 0.00 1017.1
20260830161551 0 61 7.0 11.3 0.00 0.00 0.00 1017.2
20260830160057 0 73 7.0 13.0 0.00 0.00 0.00 1017.1
20260830154542 0 46 9.6 14.8 0.00 0.00 0.00 1016.8
20260830153041 0 41 7.8 14.8 0.00 0.00 0.00 1017.0
20260830151545 0 41 7.8 13.0 0.00 0.00 0.00 1017.2
20260830150040 0 76 7.0 13.9 0.00 0.00 0.00 1017.3
20260830144539 0 41 7.0 15.6 0.00 0.00 0.00 1017.5
20260830143046 0 63 9.6 13.9 0.00 0.00 0.00 1017.6
20260830141540 0 72 6.1 19.1 0.00 0.00 0.00 1017.8
20260830140044 0 41 4.3 16.5 0.00 0.00 0.00 1018.0
20260830134551 0 50 4.3 16.5 0.00 0.00 0.00 1018.0
20260830133041 0 67 7.8 16.5 0.00 0.00 0.00 1018.1
20260830131544 0 25 9.6 15.6 0.00 0.00 0.00 1018.3
20260830130054 0 41 10.4 14.8 0.00 0.00 0.00 1018.5
20260830124541 0 41 5.2 15.6 0.00 0.00 0.00 1018.9
20260830123044 0 36 8.7 14.8 0.00 0.00 0.00 1019.0
20260830121539 0 56 2.6 13.9 0.00 0.00 0.00 1019.2
20260830120026 0 41 8.7 14.8 0.00 0.00 0.00 1019.2
20260830114521 0 41 7.8 13.9 0.00 0.00 0.00 1019.3
20260830113016 0 36 9.6 18.2 0.00 0.00 0.00 1019.2
20260830111513 0 27 5.2 11.3 0.00 0.00 0.00 1019.0
20260830110011 0 36 6.1 10.4 0.00 0.00 0.00 1019.1
20260830104505 0 27 4.3 8.7 0.00 0.00 0.00 1018.9
20260830103003 0 360 5.2 9.6 0.00 0.00 0.00 1018.8
20260830101502 0 350 0.0 11.3 0.00 0.00 0.00 1018.8
20260830100101 0 36 2.6 8.7 0.00 0.00 0.00 1018.6
20260830094556 0 23 0.9 9.6 0.00 0.00 0.00 1018.5
20260830093023 0 56 0.9 7.0 0.00 0.00 0.00 1018.4
20260830091529 0 18 0.0 0.0 0.00 0.00 0.00 1018.3
20260830090016 0 321 4.3 12.2 0.00 0.00 0.00 1018.2
20260830084515 0 2 2.6 8.7 0.00 0.00 0.00 1018.3
20260830083013 0 25 1.7 8.7 0.00 0.00 0.00 1018.3
20260830081508 0 82 0.0 4.3 0.00 0.00 0.00 1018.2
20260830080004 0 215 0.0 0.0 0.00 0.00 0.00 1017.9
20260830074604 0 207 0.0 6.1 0.00 0.00 0.00 1017.6
20260830073055 0 92 4.3 11.3 0.00 0.00 0.00 1017.5
20260830071555 0 96 2.6 8.7 0.00 0.00 0.00 1017.4
20260830070046 0 110 4.3 10.4 0.00 0.00 0.00 1017.4
20260830064541 0 171 3.5 11.3 0.00 0.00 0.00 1017.4
20260830063037 0 171 4.3 10.4 0.00 0.00 0.00 1017.2
20260830061549 0 198 3.5 9.6 0.00 0.00 0.00 1017.3
20260830060028 0 255 0.0 7.0 0.00 0.00 0.00 1017.2
20260830054528 0 275 5.2 8.7 0.00 0.00 0.00 1017.1
20260830053019 0 283 0.0 4.3 0.00 0.00 0.00 1017.0
20260830051522 0 294 0.9 4.3 0.00 0.00 0.00 1016.8
20260830050013 0 322 0.9 2.6 0.00 0.00 0.00 1016.9
20260830044505 0 356 0.9 8.7 0.00 0.00 0.00 1017.0
20260830043102 0 36 0.0 9.6 0.00 0.00 0.00 1016.9
20260830041643 0 196 1.7 5.2 0.00 0.00 0.00 1017.0
20260830040053 0 320 0.9 5.2 0.00 0.00 0.00 1017.0
20260830034614 0 53 2.6 4.3 0.00 0.00 0.00 1017.0
20260830033044 0 263 0.9 5.2 0.00 0.00 0.00 1016.9
20260830031540 0 256 0.0 3.5 0.00 0.00 0.00 1017.0